Omak, WA

7:26 AM PDT on June 26, 2017 (GMT -0700)
Omak

Weather History for KOMK - November, 2012

Change the Weather History Date:

Friday, November 16, 2012

  Actual Average Record
Temperature  
Mean Temperature 38 °F 36 °F  
Max Temperature 40 °F 44 °F 61 °F (1999)
Min Temperature 36 °F 28 °F -3 °F (1955)
Degree Days  
Heating Degree Days 27 29  
Month to date heating degree days 395 419  
Since 1 July heating degree days 931 1079  
Cooling Degree Days 0 0  
Month to date cooling degree days 0 0  
Year to date cooling degree days 629 665  
Moisture  
Dew Point 36 °F    
Average Humidity 93    
Maximum Humidity 100    
Minimum Humidity 85    
Precipitation  
Precipitation 0.02 in 0.05 in 0.40 in (1966)
Month to date precipitation 0.67 0.79  
Year to date precipitation 12.77 11.73  
Sea Level Pressure  
Sea Level Pressure 29.99 in    
Wind  
Wind Speed 1 mph (SSE)    
Max Wind Speed 7 mph    
Max Gust Speed 9 mph    
Visibility 5 miles    
Events Rain    
T = Trace of Precipitation, MM = Missing Value Source: NWS Daily Summary

Daily Weather History Graph

Daily Weather History Graph

Search for Another Location

Airport or City:

Trip Planner

Search our weather history database for the weather conditions in past years. The results will help you decide how hot, cold, wet, or windy it might be!

Date:

Astronomy

Nov. 16, 2012 Rise Set
Actual Time 7:08 AM PST 4:17 PM PST
Civil Twilight 6:33 AM PST 4:51 PM PST
Nautical Twilight 5:55 AM PST 5:29 PM PST
Astronomical Twilight 5:18 AM PST 6:06 PM PST
Moon 10:11 AM PST (11/16) 7:19 PM PST (11/16)
Length of Visible Light 10h 17m
Length of Day
9h 08m
Waxing Crescent, 12% of the Moon is Illuminated
Nov 16
Waxing Crescent
Nov 20
First Quarter
Nov 28
Full
Dec 6
Last Quarter
Dec 13
New

Hourly Weather History & Observations

Time (PST) Temp. Windchill Dew Point Humidity Pressure Visibility Wind Dir Wind Speed Gust Speed Precip Events Conditions
12:53 AM 36.0 °F - 34.0 °F 93% 30.04 in 5.0 mi Calm Calm - N/A   Overcast
1:53 AM 36.0 °F - 35.1 °F 97% 30.03 in 5.0 mi Calm Calm - 0.00 in Rain Light Rain
2:53 AM 36.0 °F - 35.1 °F 97% 30.03 in 6.0 mi Calm Calm - N/A   Overcast
3:53 AM 36.0 °F - 34.0 °F 93% 30.01 in 9.0 mi Calm Calm - N/A   Overcast
4:53 AM 36.0 °F - 34.0 °F 93% 30.01 in 9.0 mi Calm Calm - N/A   Overcast
5:25 AM 35.6 °F - 35.6 °F 100% 29.97 in 4.0 mi Calm Calm - N/A   Overcast
5:39 AM 35.6 °F - 35.6 °F 100% 29.97 in 4.0 mi Calm Calm - N/A   Overcast
5:50 AM 35.6 °F - 35.6 °F 100% 29.97 in 3.0 mi Calm Calm - N/A   Overcast
5:53 AM 36.0 °F - 35.1 °F 97% 30.00 in 3.0 mi Calm Calm - N/A   Overcast
6:46 AM 35.6 °F - 35.6 °F 100% 29.97 in 4.0 mi Calm Calm - N/A   Overcast
6:53 AM 36.0 °F - 35.1 °F 97% 30.00 in 4.0 mi Calm Calm - N/A   Overcast
7:10 AM 35.6 °F - 35.6 °F 100% 29.97 in 3.0 mi Calm Calm - N/A   Overcast
7:17 AM 35.6 °F - 35.6 °F 100% 29.97 in 2.5 mi Calm Calm - N/A   Overcast
7:50 AM 37.4 °F - 35.6 °F 93% 29.98 in 3.0 mi Calm Calm - N/A   Overcast
7:53 AM 37.0 °F - 35.1 °F 93% 30.01 in 2.5 mi Calm Calm - N/A   Overcast
8:16 AM 37.4 °F 34.9 °F 35.6 °F 93% 29.99 in 3.0 mi South 3.5 mph - N/A   Overcast
8:39 AM 37.4 °F - 35.6 °F 93% 29.99 in 2.0 mi Calm Calm - N/A   Overcast
8:53 AM 37.0 °F - 35.1 °F 93% 30.02 in 2.5 mi Calm Calm - N/A   Overcast
9:02 AM 37.4 °F 34.9 °F 35.6 °F 93% 29.99 in 1.2 mi South 3.5 mph - N/A   Overcast
9:14 AM 37.4 °F 34.9 °F 35.6 °F 93% 29.99 in 1.0 mi South 3.5 mph - 0.01 in   Overcast
9:32 AM 37.4 °F - 35.6 °F 93% 30.00 in 1.8 mi Calm Calm - 0.01 in   Overcast
9:42 AM 37.4 °F - 35.6 °F 93% 29.99 in 3.0 mi Calm Calm - 0.01 in   Overcast
9:53 AM 37.0 °F - 36.0 °F 96% 30.03 in 5.0 mi Calm Calm - 0.01 in   Overcast
10:29 AM 37.4 °F 34.9 °F 35.6 °F 93% 29.99 in 5.0 mi SE 3.5 mph - N/A   Overcast
10:53 AM 37.9 °F - 36.0 °F 93% 30.02 in 7.0 mi Calm Calm - N/A   Overcast
11:53 AM 37.9 °F 34.4 °F 37.0 °F 97% 30.01 in 8.0 mi SSW 4.6 mph - N/A   Overcast
12:53 PM 39.9 °F 35.1 °F 37.0 °F 89% 30.00 in 10.0 mi South 6.9 mph - N/A   Overcast
1:53 PM 39.9 °F 37.8 °F 37.0 °F 89% 29.99 in 10.0 mi SSW 3.5 mph - N/A   Overcast
2:53 PM 39.0 °F 36.8 °F 37.0 °F 93% 29.99 in 10.0 mi SE 3.5 mph - N/A   Overcast
3:53 PM 39.0 °F 36.8 °F 37.0 °F 93% 30.00 in 10.0 mi ESE 3.5 mph - N/A   Overcast
4:53 PM 39.0 °F - 37.0 °F 93% 29.99 in 8.0 mi Calm Calm - 0.00 in   Overcast
5:05 PM 39.2 °F 37.0 °F 37.4 °F 93% 29.96 in 8.0 mi SSE 3.5 mph - N/A   Overcast
5:53 PM 39.0 °F - 37.0 °F 93% 29.99 in 9.0 mi Calm Calm - 0.00 in Rain Light Rain
6:53 PM 39.0 °F - 36.0 °F 89% 29.98 in 10.0 mi Calm Calm - 0.01 in   Overcast
7:53 PM 39.0 °F 35.7 °F 36.0 °F 89% 29.97 in 10.0 mi SSE 4.6 mph - N/A   Overcast
8:53 PM 39.0 °F 36.8 °F 36.0 °F 89% 29.98 in 10.0 mi ESE 3.5 mph - N/A   Overcast
9:36 PM 39.2 °F - 37.4 °F 93% 29.94 in 7.0 mi Calm Calm - N/A   Overcast
9:53 PM 39.0 °F - 37.0 °F 93% 29.98 in 5.0 mi Calm Calm - N/A   Overcast
10:24 PM 37.4 °F 34.9 °F 37.4 °F 100% 29.94 in 4.0 mi East 3.5 mph - N/A   Overcast
10:48 PM 37.4 °F - 37.4 °F 100% 29.94 in 2.5 mi Calm Calm - N/A   Overcast
10:53 PM 37.9 °F - 37.0 °F 97% 29.97 in 2.5 mi Calm Calm - N/A   Overcast
11:03 PM 37.4 °F 34.9 °F 37.4 °F 100% 29.93 in 3.0 mi SSE 3.5 mph - N/A   Overcast
11:45 PM 37.4 °F - 37.4 °F 100% 29.93 in 7.0 mi Calm Calm - N/A   Overcast
11:53 PM 37.9 °F - 37.0 °F 97% 29.96 in 7.0 mi Calm Calm - N/A   Overcast